N350PE KRDG-KBUF

Flight info

Callsign N350PE
Flight time 0h 52m
Altitude 24000
Route DUMMR T438 RAV TYMAN
Aircraft B350/L-SDFG/S

Departure

Time 2026-05-05 18:38
Airport Reading Regional Airport (Carl A Spaatz Field) (KRDG)

Arrival

Time 2026-05-05 19:30
Airport Buffalo Niagara International Airport (KBUF)
Time Latitude Longitude Altitude Speed Heading
2026-05-05 18:21 40.37259 -75.96278 349 ft 0 kts 208°
2026-05-05 18:35 40.37256 -75.96280 353 ft 0 kts 205°
2026-05-05 18:35 40.37245 -75.96275 357 ft 7 kts 111°
2026-05-05 18:36 40.37272 -75.96215 346 ft 10 kts
2026-05-05 18:36 40.37352 -75.96226 338 ft 14 kts 353°
2026-05-05 18:36 40.37456 -75.96237 335 ft 13 kts
2026-05-05 18:36 40.37536 -75.96183 334 ft 9 kts 27°
2026-05-05 18:37 40.37589 -75.96172 334 ft 10 kts 335°
2026-05-05 18:37 40.37660 -75.96311 331 ft 39 kts 297°
2026-05-05 18:37 40.37904 -75.96845 338 ft 95 kts 301°
2026-05-05 18:37 40.38324 -75.97712 387 ft 126 kts 301°
2026-05-05 18:38 40.38684 -75.98367 535 ft 135 kts 303°
2026-05-05 18:38 40.39404 -75.99264 907 ft 149 kts 308°
2026-05-05 18:38 40.40152 -76.00242 1354 ft 151 kts 305°
2026-05-05 18:38 40.40863 -76.01290 1737 ft 163 kts 305°
2026-05-05 18:39 40.41663 -76.02426 2061 ft 172 kts 301°
2026-05-05 18:39 40.42335 -76.03674 2676 ft 164 kts 296°
2026-05-05 18:39 40.42983 -76.04909 3181 ft 165 kts 296°
2026-05-05 18:39 40.43643 -76.06153 3696 ft 166 kts 296°
2026-05-05 18:40 40.44305 -76.07402 4209 ft 167 kts 296°
2026-05-05 18:40 40.45079 -76.08565 4718 ft 175 kts 315°
2026-05-05 18:40 40.46007 -76.09592 5180 ft 172 kts 303°
2026-05-05 18:40 40.46762 -76.10805 5633 ft 170 kts 295°
2026-05-05 18:41 40.47154 -76.12197 6121 ft 160 kts 273°
2026-05-05 18:41 40.47388 -76.13613 6609 ft 161 kts 276°
2026-05-05 18:41 40.47649 -76.15057 7120 ft 161 kts 275°
2026-05-05 18:41 40.47897 -76.16482 7636 ft 160 kts 275°
2026-05-05 18:42 40.48142 -76.17907 8117 ft 160 kts 275°
2026-05-05 18:42 40.48388 -76.19327 8622 ft 159 kts 275°
2026-05-05 18:42 40.48631 -76.20733 9129 ft 157 kts 275°
2026-05-05 18:42 40.48872 -76.22131 9655 ft 156 kts 275°
2026-05-05 18:43 40.49114 -76.23523 10140 ft 155 kts 275°
2026-05-05 18:43 40.49340 -76.24807 10930 ft 137 kts 275°
2026-05-05 18:43 40.49541 -76.25991 11603 ft 131 kts 275°
2026-05-05 18:43 40.49741 -76.27166 12184 ft 132 kts 276°
2026-05-05 18:44 40.49944 -76.28345 12788 ft 132 kts 276°
2026-05-05 18:44 40.50146 -76.29522 13386 ft 132 kts 276°
2026-05-05 18:44 40.50350 -76.30700 13954 ft 132 kts 277°
2026-05-05 18:44 40.50553 -76.31889 14447 ft 134 kts 277°
2026-05-05 18:45 40.50760 -76.33092 14956 ft 136 kts 277°
2026-05-05 18:45 40.50970 -76.34316 15464 ft 138 kts 277°
2026-05-05 18:45 40.51182 -76.35553 15970 ft 140 kts 277°
2026-05-05 18:45 40.51398 -76.36812 16466 ft 142 kts 277°
2026-05-05 18:46 40.51617 -76.38088 16967 ft 144 kts 277°
2026-05-05 18:46 40.51838 -76.39383 17479 ft 146 kts 278°
2026-05-05 18:46 40.52060 -76.40679 17968 ft 148 kts 278°
2026-05-05 18:46 40.52287 -76.42007 18417 ft 150 kts 278°
2026-05-05 18:47 40.52518 -76.43352 18850 ft 152 kts 278°
2026-05-05 18:47 40.52749 -76.44711 19277 ft 153 kts 278°
2026-05-05 18:47 40.52984 -76.46086 19707 ft 155 kts 278°
2026-05-05 18:47 40.53220 -76.47471 20138 ft 156 kts 278°
2026-05-05 18:48 40.53458 -76.48869 20560 ft 158 kts 278°
2026-05-05 18:48 40.53700 -76.50287 20966 ft 160 kts 278°
2026-05-05 18:48 40.53943 -76.51723 21387 ft 162 kts 278°
2026-05-05 18:48 40.54191 -76.53178 21792 ft 163 kts 278°
2026-05-05 18:49 40.54440 -76.54641 22196 ft 165 kts 278°
2026-05-05 18:49 40.54693 -76.56139 22486 ft 172 kts 278°
2026-05-05 18:49 40.54959 -76.57707 22761 ft 179 kts 278°
2026-05-05 18:49 40.55236 -76.59335 23015 ft 187 kts 279°
2026-05-05 18:50 40.55748 -76.60976 23234 ft 203 kts 295°
2026-05-05 18:50 40.56522 -76.62583 23440 ft 213 kts 296°
2026-05-05 18:50 40.57322 -76.64262 23633 ft 220 kts 296°
2026-05-05 18:50 40.58122 -76.66009 23814 ft 225 kts 295°
2026-05-05 18:51 40.58945 -76.67823 23851 ft 237 kts 296°
2026-05-05 18:51 40.59812 -76.69723 23849 ft 247 kts 296°
2026-05-05 18:51 40.60713 -76.71691 23852 ft 255 kts 296°
2026-05-05 18:51 40.61639 -76.73717 23856 ft 261 kts 296°
2026-05-05 18:52 40.62582 -76.75784 23853 ft 266 kts 296°
2026-05-05 18:52 40.63542 -76.77891 23854 ft 270 kts 296°
2026-05-05 18:52 40.64512 -76.80021 23853 ft 273 kts 296°
2026-05-05 18:52 40.65493 -76.82173 23854 ft 275 kts 296°
2026-05-05 18:53 40.66477 -76.84338 23854 ft 277 kts 296°
2026-05-05 18:53 40.67469 -76.86520 23847 ft 278 kts 296°
2026-05-05 18:53 40.67875 -76.87414 23850 ft 279 kts 297°
2026-05-05 18:53 40.68591 -76.88992 23845 ft 279 kts 297°
2026-05-05 18:54 40.69587 -76.91188 23844 ft 280 kts 297°
2026-05-05 18:54 40.70586 -76.93391 23845 ft 280 kts 297°
2026-05-05 18:54 40.71315 -76.94996 23841 ft 280 kts 297°
2026-05-05 18:54 40.72315 -76.97205 23843 ft 281 kts 297°
2026-05-05 18:55 40.73314 -76.99414 23838 ft 281 kts 297°
2026-05-05 18:55 40.74317 -77.01634 23842 ft 281 kts 297°
2026-05-05 18:55 40.75319 -77.03847 23841 ft 281 kts 297°
2026-05-05 18:55 40.76318 -77.06062 23843 ft 281 kts 297°
2026-05-05 18:56 40.77299 -77.08237 23841 ft 281 kts 297°
2026-05-05 18:56 40.78320 -77.10500 23838 ft 281 kts 297°
2026-05-05 18:56 40.79320 -77.12720 23839 ft 281 kts 297°
2026-05-05 18:56 40.80319 -77.14938 23834 ft 281 kts 297°
2026-05-05 18:57 40.81319 -77.17164 23831 ft 282 kts 297°
2026-05-05 18:57 40.82318 -77.19385 23834 ft 282 kts 297°
2026-05-05 18:57 40.83321 -77.21615 23834 ft 282 kts 297°
2026-05-05 18:57 40.84320 -77.23839 23833 ft 282 kts 297°
2026-05-05 18:58 40.85320 -77.26072 23834 ft 282 kts 297°
2026-05-05 18:58 40.86321 -77.28304 23833 ft 283 kts 297°
2026-05-05 18:58 40.87322 -77.30538 23834 ft 282 kts 297°
2026-05-05 18:58 40.88322 -77.32772 23834 ft 282 kts 297°
2026-05-05 18:59 40.89319 -77.35003 23834 ft 282 kts 297°
2026-05-05 18:59 40.90388 -77.37183 23836 ft 285 kts 305°
2026-05-05 18:59 40.91841 -77.38991 23826 ft 291 kts 320°
2026-05-05 18:59 40.93636 -77.40274 23825 ft 297 kts 332°
2026-05-05 19:00 40.95577 -77.41237 23826 ft 298 kts 334°
2026-05-05 19:00 40.97505 -77.42231 23827 ft 297 kts 331°
2026-05-05 19:00 40.99388 -77.43338 23828 ft 296 kts 330°
2026-05-05 19:00 41.01274 -77.44442 23820 ft 297 kts 330°
2026-05-05 19:01 41.03177 -77.45516 23817 ft 297 kts 331°
2026-05-05 19:01 41.05079 -77.46588 23817 ft 297 kts 331°
2026-05-05 19:01 41.06978 -77.47670 23816 ft 297 kts 330°
2026-05-05 19:01 41.08875 -77.48753 23817 ft 297 kts 330°
2026-05-05 19:02 41.10776 -77.49837 23808 ft 298 kts 330°
2026-05-05 19:02 41.12674 -77.50920 23807 ft 297 kts 330°
2026-05-05 19:02 41.14576 -77.52006 23807 ft 297 kts 330°
2026-05-05 19:02 41.16475 -77.53089 23808 ft 297 kts 330°
2026-05-05 19:03 41.18372 -77.54174 23805 ft 297 kts 330°
2026-05-05 19:03 41.20268 -77.55260 23806 ft 297 kts 330°
2026-05-05 19:03 41.22170 -77.56346 23808 ft 298 kts 330°
2026-05-05 19:03 41.24047 -77.57423 23808 ft 298 kts 330°
2026-05-05 19:04 41.25951 -77.58513 23810 ft 298 kts 330°
2026-05-05 19:04 41.27861 -77.59607 23811 ft 299 kts 330°
2026-05-05 19:04 41.29766 -77.60702 23813 ft 299 kts 330°
2026-05-05 19:04 41.31681 -77.61801 23812 ft 300 kts 330°
2026-05-05 19:05 41.33600 -77.62901 23809 ft 300 kts 330°
2026-05-05 19:05 41.35520 -77.64006 23751 ft 303 kts 330°
2026-05-05 19:05 41.37476 -77.65135 23527 ft 310 kts 330°
2026-05-05 19:05 41.39473 -77.66285 23269 ft 315 kts 330°
2026-05-05 19:06 41.41504 -77.67450 22986 ft 320 kts 330°
2026-05-05 19:06 41.43556 -77.68633 22687 ft 322 kts 330°
2026-05-05 19:06 41.45623 -77.69822 22407 ft 325 kts 330°
2026-05-05 19:06 41.47703 -77.71024 22111 ft 326 kts 330°
2026-05-05 19:07 41.49813 -77.72242 21832 ft 326 kts 330°
2026-05-05 19:07 41.51893 -77.73444 21551 ft 326 kts 330°
2026-05-05 19:07 41.53955 -77.74634 21274 ft 326 kts 330°
2026-05-05 19:07 41.56037 -77.75843 21014 ft 326 kts 330°
2026-05-05 19:08 41.58116 -77.77044 20737 ft 325 kts 329°
2026-05-05 19:08 41.60185 -77.78248 20469 ft 325 kts 329°
2026-05-05 19:08 41.62263 -77.79446 20195 ft 324 kts 329°
2026-05-05 19:08 41.64322 -77.80642 19930 ft 321 kts 329°
2026-05-05 19:09 41.66365 -77.81833 19675 ft 319 kts 329°
2026-05-05 19:09 41.68398 -77.83015 19437 ft 318 kts 329°
2026-05-05 19:09 41.70421 -77.84190 19196 ft 316 kts 329°
2026-05-05 19:09 41.72435 -77.85362 18955 ft 315 kts 329°
2026-05-05 19:10 41.74444 -77.86533 18723 ft 314 kts 328°
2026-05-05 19:10 41.76442 -77.87697 18508 ft 313 kts 329°
2026-05-05 19:10 41.78447 -77.88863 18269 ft 312 kts 328°
2026-05-05 19:10 41.80433 -77.90025 18022 ft 312 kts 328°
2026-05-05 19:11 41.82420 -77.91186 17769 ft 311 kts 328°
2026-05-05 19:11 41.84406 -77.92344 17504 ft 311 kts 328°
2026-05-05 19:11 41.86386 -77.93504 17242 ft 310 kts 328°
2026-05-05 19:11 41.88366 -77.94662 16989 ft 310 kts 328°
2026-05-05 19:12 41.90343 -77.95818 16741 ft 310 kts 328°
2026-05-05 19:12 41.92311 -77.96974 16485 ft 308 kts 327°
2026-05-05 19:12 41.94271 -77.98124 16231 ft 307 kts 328°
2026-05-05 19:12 41.96228 -77.99267 15977 ft 306 kts 328°
2026-05-05 19:13 41.98170 -78.00413 15731 ft 305 kts 327°
2026-05-05 19:13 42.00112 -78.01553 15502 ft 305 kts 328°
2026-05-05 19:13 42.02052 -78.02687 15256 ft 303 kts 328°
2026-05-05 19:13 42.03979 -78.03826 15010 ft 302 kts 327°
2026-05-05 19:14 42.05896 -78.04958 14772 ft 301 kts 327°
2026-05-05 19:14 42.07817 -78.06091 14530 ft 301 kts 327°
2026-05-05 19:14 42.09734 -78.07214 14292 ft 300 kts 327°
2026-05-05 19:14 42.11645 -78.08342 14056 ft 299 kts 327°
2026-05-05 19:15 42.12909 -78.09092 13900 ft 299 kts 327°
2026-05-05 19:15 42.15458 -78.10594 13580 ft 298 kts 327°
2026-05-05 19:15 42.17337 -78.11707 13318 ft 298 kts 327°
2026-05-05 19:15 42.19229 -78.12823 13023 ft 295 kts 327°
2026-05-05 19:16 42.21093 -78.13931 12761 ft 291 kts 327°
2026-05-05 19:16 42.22943 -78.15025 12524 ft 289 kts 327°
2026-05-05 19:16 42.24770 -78.16106 12289 ft 286 kts 327°
2026-05-05 19:16 42.26583 -78.17181 12059 ft 284 kts 327°
2026-05-05 19:17 42.27800 -78.17906 11902 ft 283 kts 327°
2026-05-05 19:17 42.29605 -78.18976 11675 ft 283 kts 327°
2026-05-05 19:17 42.31462 -78.19908 11454 ft 288 kts 334°
2026-05-05 19:17 42.33339 -78.20727 11228 ft 284 kts 330°
2026-05-05 19:18 42.35145 -78.21747 11009 ft 281 kts 328°
2026-05-05 19:18 42.36935 -78.22815 10788 ft 280 kts 328°
2026-05-05 19:18 42.38727 -78.23876 10569 ft 281 kts 328°
2026-05-05 19:18 42.40521 -78.24921 10352 ft 281 kts 328°
2026-05-05 19:19 42.42310 -78.25963 10148 ft 281 kts 329°
2026-05-05 19:19 42.44123 -78.26963 9935 ft 282 kts 330°
2026-05-05 19:19 42.45949 -78.27946 9723 ft 282 kts 330°
2026-05-05 19:19 42.47771 -78.28930 9492 ft 282 kts 330°
2026-05-05 19:20 42.49583 -78.29929 9252 ft 281 kts 329°
2026-05-05 19:20 42.51389 -78.30951 9019 ft 281 kts 330°
2026-05-05 19:20 42.53203 -78.31940 8785 ft 281 kts 330°
2026-05-05 19:20 42.55014 -78.32928 8548 ft 281 kts 330°
2026-05-05 19:21 42.56822 -78.33917 8333 ft 280 kts 330°
2026-05-05 19:21 42.58631 -78.34904 8100 ft 280 kts 330°
2026-05-05 19:21 42.60433 -78.35879 7872 ft 278 kts 330°
2026-05-05 19:21 42.62226 -78.36859 7648 ft 277 kts 330°
2026-05-05 19:22 42.64016 -78.37834 7437 ft 276 kts 330°
2026-05-05 19:22 42.65792 -78.38797 7213 ft 273 kts 330°
2026-05-05 19:22 42.67556 -78.39736 6990 ft 271 kts 330°
2026-05-05 19:22 42.69303 -78.40667 6769 ft 268 kts 330°
2026-05-05 19:23 42.71037 -78.41582 6552 ft 267 kts 330°
2026-05-05 19:23 42.72761 -78.42492 6334 ft 266 kts 331°
2026-05-05 19:23 42.74477 -78.43411 6113 ft 264 kts 329°
2026-05-05 19:23 42.76134 -78.44444 5887 ft 260 kts 326°
2026-05-05 19:24 42.77745 -78.45551 5646 ft 258 kts 324°
2026-05-05 19:24 42.79311 -78.46729 5415 ft 256 kts 323°
2026-05-05 19:24 42.80859 -78.47919 5193 ft 255 kts 323°
2026-05-05 19:24 42.82396 -78.49121 5010 ft 253 kts 322°
2026-05-05 19:25 42.83911 -78.50311 4845 ft 250 kts 322°
2026-05-05 19:25 42.85421 -78.51478 4687 ft 250 kts 322°
2026-05-05 19:25 42.86930 -78.52615 4516 ft 252 kts 322°
2026-05-05 19:25 42.88484 -78.53764 4328 ft 249 kts 321°
2026-05-05 19:26 42.89940 -78.54951 4132 ft 246 kts 320°
2026-05-05 19:26 42.91410 -78.56145 3996 ft 237 kts 320°
2026-05-05 19:26 42.92810 -78.57234 3998 ft 230 kts 327°
2026-05-05 19:26 42.94390 -78.57775 3937 ft 238 kts 340°
2026-05-05 19:27 42.96008 -78.58291 3677 ft 237 kts 333°
2026-05-05 19:27 42.97524 -78.59086 3432 ft 227 kts 321°
2026-05-05 19:27 42.98664 -78.60394 3181 ft 205 kts 302°
2026-05-05 19:27 42.99393 -78.61990 2870 ft 194 kts 284°
2026-05-05 19:28 42.99479 -78.63636 3082 ft 161 kts 255°
2026-05-05 19:28 42.99068 -78.64965 2833 ft 143 kts 245°
2026-05-05 19:28 42.98624 -78.66143 2299 ft 137 kts 244°
2026-05-05 19:28 42.98135 -78.67223 1907 ft 129 kts 237°
2026-05-05 19:29 42.97593 -78.68181 1650 ft 126 kts 233°
2026-05-05 19:29 42.97013 -78.69065 1403 ft 123 kts 228°
2026-05-05 19:29 42.96447 -78.69817 1250 ft 105 kts 227°
2026-05-05 19:29 42.95929 -78.70500 1085 ft 104 kts 225°
2026-05-05 19:30 42.95416 -78.71184 931 ft 106 kts 223°
2026-05-05 19:30 42.94883 -78.71872 786 ft 100 kts 222°
2026-05-05 19:30 42.94424 -78.72466 727 ft 78 kts 222°
2026-05-05 19:30 42.94128 -78.72849 721 ft 25 kts 225°
2026-05-05 19:31 42.94059 -78.72939 721 ft 17 kts 225°
2026-05-05 19:31 42.93998 -78.73025 724 ft 9 kts 239°
2026-05-05 19:31 42.94012 -78.73125 721 ft 14 kts 302°
2026-05-05 19:31 42.94066 -78.73227 720 ft 15 kts 304°
2026-05-05 19:32 42.94125 -78.73334 720 ft 15 kts 314°
2026-05-05 19:32 42.94186 -78.73437 718 ft 15 kts 304°
2026-05-05 19:32 42.94241 -78.73539 719 ft 14 kts 306°
2026-05-05 19:32 42.94304 -78.73653 719 ft 16 kts 304°
2026-05-05 19:33 42.94365 -78.73768 719 ft 13 kts 307°
2026-05-05 19:33 42.94418 -78.73871 718 ft 13 kts 303°
2026-05-05 19:33 42.94460 -78.73946 717 ft 10 kts 309°
2026-05-05 19:33 42.94466 -78.74004 716 ft 6 kts 247°
2026-05-05 19:34 42.94453 -78.74046 718 ft 2 kts 246°
2026-05-05 19:34 42.94452 -78.74047 718 ft 0 kts 246°